Regional Weather Roundup
Issued by NWS

Home | Current Version | Previous Version | Graphics & Text | Print | Product List | Glossary On
Versions: 1 2 3 4 5 6 7 8 9 10 11 12 13 14 15 16 17 18 19 20 21 22 23 24 25 26 27 28 29 30 31 32 33 34 35 36 37 38 39 40 41 42 43 44 45 46 47 48 49 50
000
ASUS43 KLMK 250110
RWRKY
KENTUCKY REGIONAL WEATHER ROUNDUP
NATIONAL WEATHER SERVICE LOUISVILLE KY
900 PM EDT MON JUL 24 2017

NOTE "FAIR" INDICATES FEW OR NO CLOUDS BELOW 12,000 FEET
WITH NO SIGNIFICANT WEATHER AND/OR OBSTRUCTIONS TO VISIBILITY.

KYZ001>023-026-027-061>063-070>075-250200-
WESTERN AND SOUTH CENTRAL KENTUCKY

CITY           SKY/WX    TMP DP  RH WIND       PRES   REMARKS
PADUCAH        TSTM      81  75  82 NW10      29.95R
HENDERSON      CLEAR     81  71  71 N6        29.97R
OWENSBORO      CLOUDY    83  71  67 NE7       29.97R
HOPKINSVILLE   PTCLDY    84  75  72 SW5       29.95S HX  92
BOWLING GREEN  CLEAR     86  72  62 W6        29.96R HX  92
GLASGOW        MOCLDY    82  73  73 CALM      29.97R
$$

KYZ024-025-028>034-038-045-046-053-250200-
NORTH CENTRAL KENTUCKY

CITY           SKY/WX    TMP DP  RH WIND       PRES   REMARKS
LOUISVILLE/SDF PTCLDY    84  64  50 NE7       29.97R
LOUISVILLE/LOU CLEAR     83  65  54 N6        29.98R
FORT KNOX      CLOUDY    79  72  78 N5        29.97R
$$

KYZ035>037-039>044-047>052-055>060-089>105-250200-
NORTHEAST KENTUCKY

CITY           SKY/WX    TMP DP  RH WIND       PRES   REMARKS
LEXINGTON      PTCLDY    78  72  81 CALM      30.00R
COVINGTON      PTCLDY    76  67  73 N10       30.01R
FRANKFORT      CLOUDY    83  63  50 N5        29.98R
$$

KYZ054-064>069-076>088-106>120-250200-
SOUTHEAST KENTUCKY

CITY           SKY/WX    TMP DP  RH WIND       PRES   REMARKS
JACKSON        CLOUDY    73  69  87 NW5       30.01F
LONDON         CLOUDY    78  67  68 NE3       30.02R
SOMERSET       PTCLDY    77  66  69 E5        30.02R
MIDDLESBORO    CLEAR     79  70  74 W5        30.00S
MONTICELLO     CLEAR     76  73  91 NE10      30.01R
$$




USA.gov is the U.S. government's official web portal to all federal, state and local government web resources and services.